Weather History for GMMZ - January, 2014

Change the Weather History Date:

Saturday, January 4, 2014

  Actual Average Record
Temperature  
Mean Temperature 56 °F -  
Max Temperature 75 °F 63 °F - ()
Min Temperature 36 °F 36 °F - ()
Degree Days  
Heating Degree Days 10    
Growing Degree Days 6 (Base 50)    
Moisture  
Dew Point 9 °F    
Average Humidity 16    
Maximum Humidity 36    
Minimum Humidity 4    
Precipitation  
Precipitation 0.00 in 0.02 in - ()
Sea Level Pressure  
Sea Level Pressure 30.28 in    
Wind  
Wind Speed 2 mph ()    
Max Wind Speed 12 mph    
Max Gust Speed -    
Visibility 12.0 miles    
Events      
T = Trace of Precipitation, MM = Missing Value Source: Averaged Metar Reports

Daily Weather History Graph

Daily Weather History Graph

Search for Another Location

Airport or City:

Trip Planner

Search our weather history database for the weather conditions in past years. The results will help you decide how hot, cold, wet, or windy it might be!

Date:

Astronomy

Jan. 04, 2014 Rise Set
Actual Time 7:26 AM WET 5:39 PM WET
Civil Twilight 6:59 AM WET 6:05 PM WET
Nautical Twilight 6:29 AM WET 6:35 PM WET
Astronomical Twilight 6:00 AM WET 7:04 PM WET
Moon 9:37 AM WET (1/4) 9:25 PM WET (1/4)
Length of Visible Light 11h 05m
Length of Day
10h 12m
Waxing Crescent, 13% of the Moon is Illuminated
Jan 4
Waxing Crescent
Jan 8
First Quarter
Jan 16
Full
Jan 24
Last Quarter
Jan 30
New

Hourly Weather History & Observations

Time (WET) Temp. Dew Point Humidity Pressure Visibility Wind Dir Wind Speed Gust Speed Precip Events Conditions
12:00 AM 50 °F 6 °F 7%  in 12 mi SW 3.5 mph - -  
12:00 AM 50.0 °F 5.0 °F 16% 30.33 in - Variable 3.5 mph - N/A   Clear
1:00 AM 48.2 °F 8.6 °F 20% 30.30 in - Calm Calm - N/A   Clear
2:00 AM 41.0 °F 5.0 °F 23% 30.30 in - Variable 1.2 mph - N/A   Clear
3:00 AM 44 °F 7 °F 11%  in 12 mi WNW 2.3 mph - -  
3:00 AM 44.6 °F 6.8 °F 21% 30.30 in - Variable 2.3 mph - N/A   Clear
4:00 AM 39.2 °F 6.8 °F 26% 30.30 in - Calm Calm - N/A   Clear
5:00 AM 42.8 °F 6.8 °F 23% 30.30 in - Variable 1.2 mph - N/A   Clear
6:00 AM 37 °F - %  in 12 mi NW 1.2 mph - -  
6:00 AM 37.4 °F 6.8 °F 28% 30.30 in - Variable 1.2 mph - N/A   Clear
7:00 AM 39.2 °F 6.8 °F 26% 30.30 in - Variable 1.2 mph - N/A   Clear
8:00 AM 37.4 °F 12.2 °F 36% 3.75 in - Calm Calm - N/A   Clear
9:00 AM 40 °F 8 °F 15%  in 12 mi Calm Calm - -   Clear
9:00 AM 41.0 °F 8.6 °F 26% 30.33 in - Calm Calm - N/A   Clear
10:00 AM 48.2 °F 8.6 °F 20% 30.36 in - Calm Calm - N/A   Clear
11:00 AM 51.8 °F 10.4 °F 19% 30.36 in - Variable 1.2 mph - N/A   Clear
12:00 PM 58 °F 11 °F 7%  in 12 mi Calm Calm - -   Clear
12:00 PM 59.0 °F 10.4 °F 15% 30.33 in - Calm Calm - N/A   Clear
1:00 PM 64.4 °F 12.2 °F 13% 30.30 in - Calm Calm - N/A   Clear
2:00 PM 66.2 °F 12.2 °F 12% 30.24 in - Calm Calm - N/A   Clear
3:00 PM 72 °F 13 °F 4%  in 12 mi Calm Calm - -   Clear
3:00 PM 73.4 °F 12.2 °F 10% 30.21 in - Calm Calm - N/A   Clear
4:00 PM 73.4 °F 14.0 °F 10% 30.21 in - Calm Calm - N/A   Clear
5:00 PM 71.6 °F 14.0 °F 11% 30.21 in - Variable 2.3 mph - N/A   Clear
6:00 PM 67 °F 14 °F 5%  in 12 mi NNW 8.1 mph - -   Clear
6:00 PM 66.2 °F 14.0 °F 13% 30.24 in - NNW 8.1 mph - N/A   Clear
7:00 PM 64.4 °F 12.2 °F 13% 30.24 in - NNW 11.5 mph - N/A   Clear
8:00 PM 60.8 °F 8.6 °F 13% 30.24 in - West 4.6 mph - N/A   Clear
9:00 PM 59 °F 8 °F 5%  in 12 mi SSE 2.3 mph - -   Clear
9:00 PM 59.0 °F 8.6 °F 14% 30.24 in - Variable 2.3 mph - N/A   Clear
10:00 PM 55.4 °F 6.8 °F 14% 30.27 in - West 6.9 mph - N/A   Clear
11:00 PM 51.8 °F 5.0 °F 15% 30.27 in - North - - N/A   Clear